Regional Weather Roundup
Issued by NWS Green Bay, WI

Home | Current Version | Previous Version | Graphics & Text | Print | Product List | Glossary Off
Versions: 1 2 3 4 5 6 7 8 9 10 11 12 13 14 15 16 17 18 19 20 21 22 23 24 25 26 27 28 29 30 31 32 33 34 35 36 37 38 39 40 41 42 43 44 45 46 47 48 49 50

000
ASUS43 KGRB 011859
RWRGRB

NORTH-CENTRAL AND NORTHEAST WISCONSIN REGIONAL WEATHER ROUNDUP
NATIONAL WEATHER SERVICE GREEN BAY WI
200 PM CDT FRI AUG 01 2014

WIZ005-009-010>012-018-019-012000-
NORTH CENTRAL WISCONSIN

CITY           SKY/WX    TMP DP  RH WIND       PRES   REMARKS
IRONWOOD       NOT AVBL
MANITOWISH WTR NOT AVBL
ARBOR VITAE    NOT AVBL
EAGLE RIVER    NOT AVBL
LAND O LAKES   NOT AVBL
RHINELANDER    SUNNY     76  51  41 VRB3      30.08F
PHILLIPS       NOT AVBL
ANTIGO         NOT AVBL
TOMAHAWK       NOT AVBL
MERRILL        NOT AVBL
$$

WIZ013-073-012000-
NORTHEAST WISCONSIN

CITY           SKY/WX    TMP DP  RH WIND       PRES   REMARKS
IRON MOUNTAIN  MOSUNNY   80  48  32 N6        30.05S
MARINETTE      SUNNY     75  61  60 E9        30.03F
$$

WIZ017-030-035>037-045-012000-
CENTRAL WISCONSIN

CITY           SKY/WX    TMP DP  RH WIND       PRES   REMARKS
MEDFORD        NOT AVBL
WAUSAU         LGT RAIN  68  55  63 W16G31    30.05S
MOSINEE        TSTM      79  61  53 SW7       30.06F
MARSHFIELD     MOSUNNY   80  63  55 W9        30.06F
WISC RAPIDS    MOSUNNY   81  64  56 NW7       30.06F
STEVENS POINT  NOT AVBL
WAUPACA        NOT AVBL
SHAWANO        NOT AVBL
CLINTONVILLE   NOT AVBL
$$

WIZ038-039-048-051-012000-
FOX VALLEY

CITY           SKY/WX    TMP DP  RH WIND       PRES   REMARKS
NWS GREEN BAY  MOSUNNY   81  61  50 NW6       30.04F
APPLETON       PTSUNNY   79  61  53 VRB3      30.06F
OSHKOSH        MOSUNNY   81  62  52 VRB3      30.04F
FOND DU LAC    MOSUNNY   81  61  50 VRB5      30.05F
$$

WIZ022-050-052-012000-
EAST CENTRAL WISCONSIN

CITY           SKY/WX    TMP DP  RH WIND       PRES   REMARKS
STURGEON BAY   SUNNY     73  63  68 E3        30.06S
MANITOWOC      NOT AVBL
SHEBOYGAN      MOSUNNY   82  61  48 VRB5      30.05F
$$

LMZ563-521-522-541>543-012000-
LAKESHORE

STATION/POSITION TIME  TEMP    WIND        PRES    VSBY  WAVE
                       AIR SEA DIR/SP/G                  HT/PER
                 (UTC) (F)     (DEG/KT/KT) (MB)    (MI)  (FT/S)
SHEBOYGAN LKSHOR 1800   71     170/ 15/ 15 1017.6F
KEWAUNEE LKSHORE 1800   62     160/  2/  3 1017.1F
ALGOMA MARINA    1800             CALM       N/A
TWO RIVERS CG    1800   65 63                N/A       6   0
NORTHPORT PIER   1800   63     130/  8/ 10 1017.6S
N MID LAKE BUOY  1800   60 58   90/  4/  4 1017.7S         0
S GREEN BAY BUOY 1800   70 70  140/  2     1018.4F
SISTER BAY LKSHO 1800   81        CALM       N/A
STURGEON BAY CG  1800   65 64  170/  4     1016.5      6   1
CHAMBERS ISLAND  1800   73     360/  3/  3 1017.6S
MENOMINEE LKSHOR 1800   70     120/  4/  5 1017.9F
$$



USA.gov is the U.S. government's official web portal to all federal, state and local government web resources and services.